Weather History for New Bedford, MA

Change the Weather History Date:

Saturday, February 11, 2012

  Actual Average Record
Temperature  
Mean Temperature 37 °F -  
Max Temperature 41 °F 37 °F 57 °F (2009)
Min Temperature 32 °F 23 °F 3 °F (1962)
Degree Days  
Heating Degree Days 28    
Moisture  
Dew Point 32 °F    
Average Humidity 89    
Maximum Humidity 96    
Minimum Humidity 61    
Precipitation  
Precipitation 0.16 in - - ()
Sea Level Pressure  
Sea Level Pressure 29.70 in    
Wind  
Wind Speed 5 mph (NW)    
Max Wind Speed 10 mph    
Max Gust Speed 18 mph    
Visibility 4 miles    
Events Fog , Rain , Snow    
Averages and records for this station are not official NWS values.
T = Trace of Precipitation, MM = Missing Value Source: NWS Daily Summary

Daily Weather History Graph

Daily Weather History Graph

Search for Another Location

Airport:

Trip Planner

Search our weather history database for the weather conditions in past years. The results will help you decide how hot, cold, wet, or windy it might be!

Date:

Astronomy

Feb. 11, 2012 Rise Set
Actual Time 6:45 AM EST 5:11 PM EST
Civil Twilight 6:16 AM EST 5:40 PM EST
Nautical Twilight 5:43 AM EST 6:13 PM EST
Astronomical Twilight 5:11 AM EST 6:45 PM EST
Moon 10:01 PM EST (2/11) 8:21 AM EST (2/11)
Length of Visible Light 11h 23m
Length of Day
10h 26m
Waning Gibbous, 82% of the Moon is Illuminated
Feb 11
Waning Gibbous
Feb 14
Last Quarter
Feb 21
New
Feb 29
First Quarter
Mar 8
Full

Hourly Weather History & Observations

Time (EST) Temp. Windchill Dew Point Humidity Pressure Visibility Wind Dir Wind Speed Gust Speed Precip Events Conditions
12:04 AM 41.0 °F 37.1 °F 37.4 °F 87% 29.89 in 3.0 mi Variable 5.8 mph - 0.01 in Rain Light Rain
12:22 AM 41.0 °F 34.7 °F 37.4 °F 87% 29.89 in 3.0 mi WSW 10.4 mph 16.1 mph 0.01 in Rain Light Rain
12:30 AM 39.2 °F 33.6 °F 37.4 °F 93% 29.88 in 4.0 mi WSW 8.1 mph 17.3 mph 0.02 in Rain Light Rain
12:53 AM 39.9 °F 35.8 °F 37.0 °F 89% 29.88 in 4.0 mi WSW 5.8 mph - 0.02 in Rain Light Rain
1:30 AM 39.2 °F 34.2 °F 35.6 °F 87% 29.88 in 3.0 mi WSW 6.9 mph - 0.02 in Rain Light Rain
1:53 AM 39.0 °F 34.8 °F 36.0 °F 89% 29.88 in 3.0 mi WSW 5.8 mph - 0.02 in Rain Light Rain
2:12 AM 37.4 °F 33.8 °F 35.6 °F 93% 29.86 in 4.0 mi WSW 4.6 mph - 0.01 in Rain Light Rain
2:53 AM 37.9 °F 35.5 °F 36.0 °F 93% 29.85 in 3.0 mi West 3.5 mph - 0.01 in Rain Light Rain
3:03 AM 37.4 °F 34.9 °F 35.6 °F 93% 29.84 in 2.5 mi WNW 3.5 mph - 0.00 in Rain Light Rain
3:18 AM 37.4 °F 33.8 °F 33.8 °F 87% 29.84 in 3.0 mi NW 4.6 mph - 0.00 in Rain Light Rain
3:37 AM 35.6 °F 32.8 °F 33.8 °F 93% 29.84 in 2.5 mi WNW 3.5 mph - 0.01 in Rain Light Rain
3:53 AM 36.0 °F - 33.1 °F 89% 29.84 in 3.0 mi Calm Calm - 0.01 in Rain Light Rain
4:06 AM 35.6 °F 31.7 °F 33.8 °F 93% 29.84 in 2.5 mi WNW 4.6 mph - 0.00 in Rain Light Rain
4:13 AM 35.6 °F 31.7 °F 33.8 °F 93% 29.84 in 3.0 mi NW 4.6 mph - 0.00 in Rain Light Rain
4:30 AM 35.6 °F - 33.8 °F 93% 29.84 in 2.5 mi Calm Calm - 0.00 in Rain Light Rain
4:49 AM 33.8 °F - 32.0 °F 93% 29.83 in 1.5 mi Calm Calm - 0.01 in Snow Light Snow
4:53 AM 34.0 °F - 32.0 °F 92% 29.84 in 1.5 mi Calm Calm - 0.01 in Snow Light Snow
5:05 AM 33.8 °F - 32.0 °F 93% 29.83 in 1.5 mi Calm Calm - 0.01 in Snow Light Snow
5:32 AM 33.8 °F - 32.0 °F 93% 29.82 in 0.8 mi Calm Calm - 0.02 in Snow Light Snow
5:50 AM 33.8 °F - 32.0 °F 93% 29.81 in 1.0 mi Calm Calm - 0.02 in Snow Light Snow
5:53 AM 33.1 °F - 32.0 °F 96% 29.82 in 1.0 mi Calm Calm - 0.02 in Snow Light Snow
6:11 AM 33.8 °F 30.8 °F 30.2 °F 87% 29.80 in 1.5 mi Variable 3.5 mph - 0.00 in Snow Light Snow
6:37 AM 33.8 °F - 32.0 °F 93% 29.80 in 1.0 mi Calm Calm - 0.01 in Snow Light Snow
6:50 AM 33.8 °F - 32.0 °F 93% 29.80 in 1.0 mi Calm Calm - 0.01 in Snow Light Snow
6:53 AM 33.1 °F - 32.0 °F 96% 29.80 in 1.0 mi Calm Calm - 0.01 in Snow Light Snow
7:53 AM 33.1 °F - 32.0 °F 96% 29.78 in 1.0 mi Calm Calm - 0.01 in Snow Light Snow
8:53 AM 33.1 °F - 32.0 °F 96% 29.77 in 0.8 mi Calm Calm - 0.00 in Snow Light Snow
9:23 AM 33.8 °F 30.8 °F 30.2 °F 87% 29.75 in 0.5 mi NNW 3.5 mph - 0.01 in Fog , Snow Snow
9:53 AM 33.1 °F - 30.9 °F 92% 29.74 in 0.8 mi Calm Calm - 0.02 in Snow Light Snow
10:53 AM 33.1 °F 27.7 °F 30.9 °F 92% 29.70 in 0.5 mi North 5.8 mph - 0.01 in Fog , Snow Snow
11:53 AM 33.1 °F 30.0 °F 32.0 °F 96% 29.67 in 0.5 mi North 3.5 mph - 0.02 in Fog , Snow Snow
12:53 PM 34.0 °F 31.0 °F 32.0 °F 92% 29.63 in 0.8 mi North 3.5 mph - 0.02 in Snow Light Snow
1:01 PM 33.8 °F 28.6 °F 32.0 °F 93% 29.62 in 1.0 mi NNW 5.8 mph - 0.01 in Snow Light Snow
1:08 PM 33.8 °F 28.6 °F 32.0 °F 93% 29.61 in 0.8 mi North 5.8 mph - 0.01 in Snow Light Snow
1:29 PM 33.8 °F 27.7 °F 32.0 °F 93% 29.60 in 2.0 mi North 6.9 mph - 0.01 in Snow Light Snow
1:53 PM 34.0 °F 28.8 °F 32.0 °F 92% 29.59 in 2.0 mi North 5.8 mph - 0.01 in Snow Light Snow
2:48 PM 33.8 °F 27.0 °F 32.0 °F 93% 29.56 in 3.0 mi North 8.1 mph - 0.00 in   Overcast
2:53 PM 34.0 °F 28.0 °F 30.9 °F 89% 29.56 in 4.0 mi North 6.9 mph - 0.00 in   Overcast
3:43 PM 33.8 °F 27.0 °F 30.2 °F 87% 29.54 in 5.0 mi North 8.1 mph - N/A   Overcast
3:53 PM 34.0 °F 28.0 °F 30.9 °F 89% 29.53 in 5.0 mi North 6.9 mph - N/A   Overcast
4:53 PM 34.0 °F 26.6 °F 30.9 °F 89% 29.50 in 6.0 mi North 9.2 mph 18.4 mph N/A   Overcast
5:06 PM 33.8 °F 28.6 °F 30.2 °F 87% 29.50 in 7.0 mi Variable 5.8 mph 17.3 mph N/A   Overcast
5:53 PM 34.0 °F 28.0 °F 30.0 °F 85% 29.50 in 10.0 mi North 6.9 mph - N/A   Overcast
6:14 PM 33.8 °F 26.4 °F 30.2 °F 87% 29.50 in 10.0 mi North 9.2 mph - N/A   Overcast
6:38 PM 33.8 °F 26.4 °F 28.4 °F 81% 29.49 in 9.0 mi North 9.2 mph 16.1 mph N/A   Overcast
6:53 PM 34.0 °F 27.2 °F 28.9 °F 82% 29.49 in 10.0 mi North 8.1 mph 17.3 mph N/A   Overcast
7:53 PM 34.0 °F 26.0 °F 28.0 °F 79% 29.50 in 10.0 mi North 10.4 mph - N/A   Overcast
8:27 PM 33.8 °F 27.7 °F 26.6 °F 75% 29.50 in 10.0 mi Variable 6.9 mph - N/A   Overcast
8:53 PM 33.1 °F 27.7 °F 26.1 °F 75% 29.50 in 10.0 mi Variable 5.8 mph - N/A   Mostly Cloudy
9:53 PM 33.1 °F 27.7 °F 25.0 °F 72% 29.49 in 10.0 mi NNW 5.8 mph - N/A   Clear
10:53 PM 33.1 °F 27.7 °F 26.1 °F 75% 29.50 in 10.0 mi NW 5.8 mph - N/A   Overcast
11:53 PM 32.0 °F 24.8 °F 19.9 °F 61% 29.52 in 10.0 mi NW 8.1 mph - N/A   Partly Cloudy